Temperature
24 24 24 23 23 22 22 21 21 21 20 20 20 19 19 19 19 19 19 19 19 19 19 18 18 18 18 18 18 18 18 18 18 18 18 18 18 18 18 18 18 18 18
24 24 24 23 23 22 22 22 21 21 20 20 20 20 19 19 19 19 19 19 19 19 19 18 18 18 18 18 18 18 18 18 18 18 18 18 18 18 18 18 18 18 18
24 24 24 23 23 23 22 22 22 21 21 20 20 20 19 19 19 19 19 19 19 19 19 19 18 18 18 18 18 18 18 18 18 18 18 18 18 18 18 18 18 18 18
25 24 24 24 23 23 23 22 22 21 21 21 20 20 20 20 20 19 19 19 19 19 19 19 19 19 18 18 18 18 18 18 18 18 18 18 18 17 18 18 18 18 18
25 25 24 24 24 23 23 22 22 22 21 21 20 20 20 20 20 20 19 19 19 19 19 19 19 19 19 19 18 18 18 18 18 18 18 18 18 18 17 17 18 18 18
25 25 25 24 24 23 23 23 22 22 21 21 21 20 20 20 20 20 20 19 19 19 19 19 19 19 18 19 18 18 18 18 18 18 18 18 18 18 18 17 17 18 18
25 25 24 24 24 24 23 23 22 22 22 21 21 21 20 20 20 20 20 20 19 19 19 19 19 19 19 18 18 18 18 18 18 18 18 18 18 18 17 17 17 17 17
26 25 25 25 24 24 23 23 23 22 22 21 21 21 20 20 20 20 20 20 20 19 19 19 19 19 19 18 18 18 18 18 18 18 18 18 18 17 17 17 17 17 17
25 25 25 25 25 24 24 24 23 23 22 22 21 21 20 20 20 20 20 20 20 19 19 19 19 19 19 18 18 18 18 18 18 18 18 18 18 17 17 17 17 17 16
25 25 25 25 25 24 24 24 23 23 23 22 22 21 21 21 20 20 20 20 19 19 19 19 19 19 19 18 18 18 18 18 18 18 18 18 17 17 17 17 17 17 17
25 25 24 25 24 24 24 24 23 23 22 22 22 21 21 21 20 20 20 20 19 19 19 19 19 19 19 19 18 18 18 18 18 18 18 17 17 17 17 17 17 17 17
24 24 24 24 24 24 23 23 23 22 22 22 22 21 21 21 20 20 20 20 19 19 19 19 19 19 18 18 18 18 18 18 18 18 17 17 17 17 17 17 17 17 17
23 23 23 24 24 23 23 23 22 22 22 22 21 21 21 21 20 20 20 20 19 19 19 19 19 19 18 18 18 18 18 18 18 18 17 17 17 17 17 17 17 16 16
22 23 23 23 23 23 23 22 22 22 21 21 21 21 21 20 20 20 19 19 19 19 19 19 19 18 18 18 18 18 18 18 18 17 17 17 17 17 17 17 16 16 16
22 22 22 22 23 22 22 22 21 21 21 21 20 21 21 20 20 20 19 19 19 19 19 18 18 18 18 18 18 18 18 18 17 17 17 17 17 17 17 16 16 16 16
21 21 21 22 22 21 21 21 21 21 21 20 20 20 20 20 20 19 19 19 19 19 18 18 18 18 18 18 18 18 17 17 17 17 17 17 17 16 16 16 16 16 16
21 21 21 21 21 21 21 20 20 20 20 20 20 20 20 19 19 19 19 18 18 18 18 18 18 18 18 18 17 17 17 17 17 17 17 16 16 16 16 16 16 16 16
20 20 20 20 20 20 20 20 20 20 20 20 20 19 19 19 19 18 18 18 18 18 18 18 18 17 17 17 17 17 17 17 17 16 16 16 16 16 16 15 15 15 15
20 20 20 20 20 20 20 20 20 20 20 20 19 19 19 18 18 18 18 18 18 18 18 18 17 17 17 17 17 16 16 16 16 16 16 16 16 16 15 15 15 15 15
19 19 19 19 19 19 19 20 19 19 19 19 19 19 18 18 18 18 18 18 17 17 17 17 17 17 17 17 16 16 16 16 16 16 15 15 15 15 15 15 15 14 15
19 19 19 19 19 18 18 18 18 18 18 18 18 18 18 18 18 17 17 17 17 17 17 17 17 16 16 16 16 16 16 16 15 15 15 15 15 15 15 14 14 14 14
18 18 18 17 18 18 18 18 17 17 17 17 17 17 17 17 17 17 17 17 17 17 16 16 16 16 16 16 16 15 15 15 15 15 15 15 14 14 14 14 14 14 13
17 17 17 17 17 17 17 17 17 16 16 16 16 16 16 16 16 16 16 16 16 16 16 16 16 16 16 15 15 15 15 15 15 15 14 14 14 14 14 14 13 13 13
16 16 16 16 16 16 16 16 16 15 15 15 16 16 16 15 15 16 16 16 15 15 16 15 15 15 15 15 15 14 14 14 14 14 14 14 13 13 13 13 13 13 12
15 15 15 15 15 15 15 15 15 15 15 15 15 15 15 15 15 15 15 15 15 15 15 15 15 15 15 15 14 14 14 14 14 14 13 13 13 13 13 13 12 12 12
15 15 15 15 14 14 14 14 14 14 14 14 14 14 14 14 14 14 14 14 14 14 14 14 14 14 14 14 14 14 14 14 13 13 13 13 12 12 12 12 12 11 11
Wind_Speed
12 12 13 14 13 11 11 11 10 9 7 4 4 3 3 3 3 4 7 8 8 8 6 4 3 4 4 4 4 2 2 1 1 1 2 3 2 2 3 3 3 5 7
11 12 12 12 13 13 12 11 11 10 8 6 5 4 4 3 3 3 4 7 8 7 6 5 4 4 4 3 4 3 2 1 2 2 1 2 4 3 3 2 3 4 4
17 16 15 14 13 13 13 13 12 10 9 8 4 3 2 1 1 2 3 4 7 7 6 6 5 4 4 4 4 4 4 3 2 3 3 3 3 3 3 2 2 2 3
15 16 16 16 16 15 13 12 12 11 9 9 7 7 6 5 5 4 4 4 5 5 6 6 5 5 4 4 4 4 4 4 3 2 2 3 4 2 2 3 2 2 3
16 17 17 17 16 14 13 12 11 11 10 9 9 8 6 5 4 3 5 5 4 4 5 5 5 5 4 4 4 4 4 4 4 3 2 2 2 2 2 3 3 2 2
15 15 14 13 12 12 12 12 11 11 10 10 9 9 8 7 6 5 6 5 4 3 4 5 5 5 4 5 4 4 4 4 4 3 3 3 3 3 3 3 3 3 3
14 13 13 14 14 14 13 12 13 11 11 10 10 10 10 9 8 7 7 6 4 3 5 5 5 4 5 4 4 4 4 4 4 4 3 3 4 3 3 3 3 2 2
12 12 14 14 15 15 14 13 13 12 11 11 10 9 9 7 6 7 6 6 6 5 5 5 5 5 5 5 4 4 4 3 3 4 3 3 3 3 3 3 3 2 2
10 11 12 13 14 14 14 13 13 11 11 11 9 8 8 8 7 7 6 5 5 5 6 6 5 5 5 5 4 3 3 3 3 3 3 2 3 2 2 3 4 4 2
8 9 10 12 11 12 12 11 12 12 11 11 10 9 7 7 7 6 6 6 6 5 5 5 6 5 5 5 4 3 3 4 3 3 3 3 2 2 2 2 2 3 4
8 8 10 10 10 9 9 10 10 10 10 10 9 8 7 7 6 6 7 7 6 6 6 6 6 5 5 5 5 4 4 5 4 4 4 4 3 2 2 2 2 2 3
6 6 7 8 8 8 8 8 9 9 10 10 9 8 7 7 6 7 7 7 6 6 6 6 6 6 5 5 4 5 5 5 5 5 5 5 3 4 3 3 3 2 3
8 7 7 7 7 6 6 7 7 8 8 8 9 8 7 7 7 6 6 6 6 5 5 6 6 5 5 5 5 5 4 5 5 5 5 5 4 4 3 3 3 2 2
9 8 7 7 7 5 5 5 6 6 6 7 7 7 7 7 7 6 6 6 6 6 5 6 6 6 5 5 5 5 4 4 4 4 5 5 5 5 4 3 3 3 2
8 8 7 6 6 4 2 2 4 5 5 5 6 7 7 6 6 6 6 6 6 6 6 5 5 5 5 5 5 5 5 4 4 4 4 5 5 6 5 4 4 4 3
8 7 7 6 4 3 2 1 2 3 5 5 5 5 5 5 6 6 5 5 6 5 5 5 5 5 5 6 7 6 4 4 4 4 4 4 4 5 6 6 7 6 5
9 8 8 6 4 3 3 1 0 2 4 4 4 4 4 5 5 6 5 5 6 5 5 6 5 5 6 7 8 8 5 4 4 4 3 3 3 4 3 4 4 5 6
8 7 7 6 4 3 3 2 1 2 2 2 3 4 4 4 4 5 6 6 5 5 6 6 6 5 5 7 7 8 5 4 4 4 4 4 3 3 4 3 2 3 3
5 6 6 6 5 4 4 4 3 3 2 1 3 3 5 5 5 5 5 5 5 5 5 5 5 5 5 7 8 7 3 3 4 4 3 4 4 5 5 4 3 3 3
4 3 4 5 4 3 3 5 3 2 2 3 3 3 4 5 5 6 5 3 3 4 4 4 4 5 4 5 7 8 4 4 3 3 3 4 4 5 6 4 4 4 3
4 4 4 3 3 3 4 4 2 1 2 3 2 3 3 3 4 4 3 3 3 3 3 2 2 2 3 5 7 8 5 4 4 3 3 3 4 5 6 5 5 5 3
4 4 4 2 1 2 4 3 1 1 2 2 2 2 2 2 2 2 2 3 3 3 3 3 2 1 3 4 5 7 7 5 4 4 3 3 4 4 4 4 3 3 3
2 2 3 3 1 2 3 2 2 3 3 2 2 1 1 1 2 3 2 2 2 3 3 3 3 2 2 2 4 5 5 5 4 2 3 3 3 3 2 3 3 3 2
1 1 2 2 1 1 1 1 1 1 1 2 2 1 1 1 1 1 2 2 2 3 3 3 3 3 2 1 1 2 2 3 2 1 1 1 2 2 2 1 1 1 2
1 2 1 2 2 1 0 0 1 1 2 3 2 1 1 1 1 1 1 2 2 3 4 4 4 4 3 4 5 4 3 3 3 3 1 1 1 1 1 1 1 1 1
1 2 1 1 1 1 0 1 1 1 1 1 1 1 0 1 1 2 1 3 1 1 2 4 4 2 4 4 3 4 4 5 6 5 3 2 2 2 1 1 1 1 1
Wind_Direction
180 171 171 168 165 166 166 167 167 172 162 155 157 160 175 180 179 186 184 182 183 180 174 178 180 172 175 183 180 170 171 188 159 87 337 326 295 250 229 216 203 205 207
173 174 174 172 173 175 175 172 174 176 174 173 171 170 169 184 186 186 184 188 186 185 183 173 179 178 171 176 182 169 162 199 160 144 122 333 331 311 261 229 205 203 202
180 181 180 181 179 181 181 180 179 178 179 171 158 146 122 116 161 191 199 199 191 193 190 179 176 178 174 183 190 180 170 190 209 172 158 172 234 287 308 278 239 206 208
181 183 183 183 186 187 183 178 178 180 180 172 171 169 176 188 203 196 197 201 194 192 189 177 176 178 179 186 197 185 176 171 196 215 207 191 177 191 295 314 293 253 233
184 186 188 187 188 185 182 179 177 180 181 180 181 181 189 195 191 185 189 198 200 194 188 181 179 184 187 192 195 182 183 182 187 193 201 214 203 186 194 272 299 304 265
187 186 190 185 183 181 179 176 177 184 183 185 185 187 189 187 181 186 191 198 200 203 203 188 182 188 191 194 194 192 188 196 197 195 190 188 192 200 191 224 256 272 276
185 182 184 184 182 181 180 178 179 186 186 187 190 193 192 186 187 189 193 195 197 204 210 198 189 191 198 197 191 189 200 199 198 204 207 204 210 191 184 196 235 256 277
185 182 184 183 181 180 179 180 184 188 188 189 193 195 190 186 192 194 191 195 199 206 202 196 195 196 194 199 190 193 206 200 206 218 212 214 227 202 189 188 188 236 284
183 183 182 181 179 178 179 182 185 189 190 189 188 191 191 191 194 194 192 195 200 204 200 197 196 200 197 194 181 190 202 196 203 211 205 210 227 216 203 186 175 179 217
180 181 178 177 177 179 178 181 184 187 186 184 188 195 196 194 193 189 195 198 200 202 195 198 194 193 194 193 187 193 199 199 214 212 212 220 225 220 211 192 184 177 184
172 180 180 174 170 168 170 178 184 181 184 187 187 188 191 194 193 196 199 198 197 192 193 197 194 194 197 193 191 203 199 207 219 222 217 226 214 211 221 198 184 186 173
148 148 157 153 150 157 165 176 182 185 188 186 185 189 189 189 196 203 203 197 195 196 196 192 192 201 206 203 198 215 215 214 221 226 223 228 218 211 214 203 205 202 192
113 113 120 131 137 149 165 176 178 188 189 182 184 186 188 190 198 203 199 194 192 195 195 189 190 196 199 200 206 212 213 217 222 222 219 222 214 226 225 212 210 210 205
121 116 112 120 124 136 156 169 179 183 188 184 183 186 191 192 195 193 189 189 192 193 193 194 194 196 198 200 206 204 207 218 224 224 220 217 214 221 220 215 210 200 196
122 118 118 114 111 112 129 168 183 176 176 178 185 198 196 189 189 192 193 191 191 194 194 193 196 194 194 205 203 203 203 208 220 229 226 223 223 218 208 208 203 195 198
126 126 124 119 116 130 141 165 173 175 159 163 197 202 190 186 192 198 195 191 194 193 190 197 198 199 208 205 197 191 200 203 211 224 230 235 230 225 218 213 204 195 196
135 136 138 142 151 164 151 123 227 135 143 161 176 180 186 194 199 196 193 200 203 196 197 205 204 209 215 206 201 195 190 202 214 219 225 234 231 209 217 219 210 214 211
138 144 146 148 156 163 139 128 107 111 128 168 187 189 184 183 195 194 197 207 206 204 204 204 204 210 219 209 204 195 194 204 217 219 215 216 221 212 200 193 205 228 237
133 143 147 146 150 150 140 131 126 144 159 210 226 212 197 195 195 200 204 209 205 207 208 202 200 204 218 205 195 177 179 206 228 231 221 212 217 221 197 184 207 234 265
87 110 123 121 120 116 109 117 127 125 184 222 239 227 208 199 199 203 204 202 201 209 206 208 203 201 207 198 189 181 180 203 231 242 234 223 221 217 192 188 195 219 243
76 82 88 97 116 115 105 106 125 179 262 260 250 233 219 211 202 194 192 189 194 190 186 188 209 207 205 205 199 189 188 203 221 234 239 242 236 222 204 197 203 219 201
63 78 92 80 82 100 100 88 29 309 317 315 284 253 229 220 189 167 180 182 182 178 176 170 197 217 210 203 209 201 201 199 203 225 229 229 223 217 206 204 214 194 160
68 84 111 107 50 83 101 85 350 351 360 348 305 299 295 202 190 171 169 171 173 184 193 183 193 214 216 199 203 201 206 209 206 227 232 225 211 202 200 203 184 161 158
132 119 113 115 88 37 81 106 308 340 343 327 316 269 210 263 218 176 166 158 179 193 187 194 207 216 222 225 208 208 210 207 202 227 235 184 148 138 136 136 160 164 164
148 123 133 147 169 190 216 297 334 349 334 328 328 303 234 172 138 93 115 164 210 208 195 202 193 190 215 230 207 191 198 200 198 164 136 101 97 105 104 89 97 123 127
153 147 167 187 193 185 307 331 336 352 354 330 330 325 263 176 170 157 87 48 53 48 173 187 186 201 208 210 194 186 184 179 162 145 146 157 166 174 166 145 130 128 147
Height
1509 1512 1514 1516 1518 1521 1522 1524 1525 1527 1529 1530 1532 1533 1534 1535 1535 1536 1537 1538 1538 1539 1540 1540 1541 1542 1543 1544 1545 1545 1546 1546 1547 1548 1548 1548 1548 1548 1548 1548 1548 1549 1549
1508 1510 1512 1514 1516 1518 1520 1522 1523 1525 1527 1528 1530 1532 1533 1534 1535 1535 1536 1537 1537 1538 1539 1539 1540 1541 1542 1542 1543 1544 1544 1545 1546 1546 1546 1546 1547 1545 1545 1546 1546 1546 1546
1502 1506 1508 1511 1513 1515 1517 1519 1521 1523 1525 1527 1529 1530 1532 1533 1533 1534 1535 1536 1536 1537 1538 1538 1539 1540 1540 1541 1541 1542 1542 1542 1543 1544 1545 1544 1543 1543 1543 1543 1543 1544 1544
1498 1502 1504 1507 1510 1512 1515 1517 1519 1521 1523 1525 1526 1527 1528 1529 1531 1532 1533 1534 1535 1536 1537 1537 1538 1538 1538 1539 1539 1539 1540 1540 1541 1542 1542 1543 1542 1542 1541 1541 1541 1541 1541
1495 1498 1501 1503 1507 1510 1513 1516 1518 1520 1522 1523 1525 1526 1527 1528 1529 1530 1532 1532 1533 1534 1535 1535 1536 1536 1537 1537 1537 1537 1538 1538 1539 1539 1539 1540 1540 1540 1540 1539 1539 1539 1539
1491 1494 1498 1502 1505 1508 1511 1513 1516 1518 1519 1521 1523 1524 1525 1526 1527 1528 1529 1530 1531 1532 1533 1534 1534 1534 1535 1535 1536 1536 1536 1536 1536 1537 1537 1537 1537 1537 1537 1536 1536 1536 1536
1487 1491 1495 1499 1502 1505 1508 1511 1513 1515 1517 1519 1521 1522 1523 1525 1526 1527 1528 1528 1529 1530 1531 1532 1532 1532 1533 1533 1534 1534 1534 1534 1534 1534 1534 1534 1534 1534 1534 1534 1534 1534 1534
1483 1486 1490 1494 1498 1502 1505 1508 1510 1512 1515 1516 1518 1520 1522 1523 1524 1525 1526 1527 1527 1528 1529 1530 1530 1531 1531 1531 1532 1532 1532 1532 1532 1531 1531 1531 1531 1532 1531 1532 1532 1531 1531
1479 1483 1486 1490 1494 1498 1501 1504 1507 1510 1512 1514 1516 1518 1520 1521 1522 1523 1524 1525 1526 1527 1527 1528 1528 1528 1529 1529 1529 1530 1529 1530 1530 1529 1529 1529 1529 1529 1529 1529 1529 1529 1528
1477 1481 1484 1488 1492 1495 1499 1502 1505 1507 1509 1511 1513 1516 1517 1518 1520 1521 1522 1522 1523 1524 1525 1526 1526 1526 1526 1527 1527 1527 1527 1527 1527 1527 1527 1526 1526 1526 1526 1526 1526 1526 1526
1474 1478 1481 1485 1490 1494 1498 1500 1503 1505 1507 1509 1511 1513 1514 1516 1517 1518 1519 1520 1521 1521 1522 1523 1523 1524 1524 1524 1524 1524 1525 1524 1524 1524 1524 1523 1523 1523 1523 1523 1523 1523 1523
1473 1477 1481 1485 1488 1492 1496 1498 1500 1503 1505 1506 1508 1509 1511 1512 1513 1514 1515 1517 1517 1518 1519 1519 1520 1521 1521 1521 1521 1521 1522 1522 1522 1521 1521 1521 1520 1520 1520 1520 1520 1520 1520
1474 1477 1480 1483 1486 1490 1494 1496 1498 1500 1502 1503 1505 1506 1507 1509 1510 1511 1512 1513 1514 1515 1516 1516 1517 1517 1518 1518 1518 1519 1519 1519 1519 1518 1518 1518 1518 1517 1517 1517 1516 1516 1516
1472 1476 1478 1481 1484 1487 1491 1494 1495 1497 1499 1501 1502 1503 1504 1505 1507 1509 1510 1510 1511 1512 1512 1513 1513 1514 1515 1515 1515 1516 1515 1515 1516 1516 1515 1515 1514 1514 1514 1514 1513 1513 1513
1474 1475 1478 1480 1483 1487 1489 1491 1492 1495 1497 1499 1499 1500 1501 1503 1504 1505 1506 1507 1508 1508 1509 1509 1510 1510 1511 1511 1512 1512 1512 1512 1512 1512 1512 1512 1511 1511 1510 1510 1510 1510 1510
1475 1476 1478 1480 1483 1486 1488 1489 1489 1491 1494 1496 1496 1498 1499 1500 1501 1502 1503 1503 1503 1504 1505 1505 1506 1506 1507 1507 1508 1508 1508 1508 1508 1508 1508 1508 1508 1507 1507 1506 1506 1506 1506
1475 1477 1478 1480 1483 1485 1487 1488 1489 1490 1492 1493 1494 1495 1496 1496 1498 1499 1500 1499 1499 1500 1500 1501 1502 1502 1503 1503 1504 1504 1505 1505 1505 1505 1505 1504 1504 1504 1503 1503 1503 1502 1502
1475 1478 1479 1480 1483 1485 1485 1487 1488 1488 1489 1490 1491 1491 1493 1493 1494 1495 1495 1496 1496 1496 1496 1496 1497 1498 1499 1499 1500 1500 1501 1501 1501 1502 1501 1501 1501 1500 1500 1500 1499 1499 1498
1476 1477 1479 1480 1482 1483 1483 1483 1484 1485 1486 1486 1487 1487 1489 1490 1491 1492 1492 1492 1493 1493 1493 1493 1493 1494 1494 1495 1495 1495 1496 1497 1497 1498 1498 1498 1498 1497 1497 1497 1496 1496 1495
1477 1478 1479 1479 1479 1479 1480 1480 1480 1482 1483 1484 1484 1484 1485 1486 1487 1488 1488 1489 1489 1489 1489 1489 1490 1490 1490 1491 1491 1491 1492 1493 1494 1494 1494 1494 1494 1494 1494 1493 1493 1492 1492
1476 1477 1478 1478 1478 1478 1479 1479 1479 1479 1479 1479 1480 1481 1482 1483 1483 1483 1484 1485 1485 1485 1485 1485 1486 1486 1487 1487 1487 1488 1488 1489 1489 1490 1490 1490 1490 1490 1490 1489 1489 1489 1489
1475 1476 1476 1476 1476 1477 1477 1476 1476 1476 1477 1477 1478 1478 1478 1478 1479 1480 1480 1481 1481 1481 1481 1480 1481 1482 1482 1483 1483 1484 1484 1485 1485 1485 1486 1486 1486 1486 1486 1486 1486 1486 1486
1473 1473 1473 1473 1474 1473 1473 1473 1473 1474 1475 1474 1474 1475 1475 1474 1475 1475 1475 1476 1476 1477 1477 1477 1477 1477 1478 1478 1480 1481 1481 1481 1481 1481 1482 1483 1483 1483 1482 1482 1482 1482 1482
1470 1470 1470 1470 1471 1470 1471 1471 1471 1472 1471 1471 1471 1471 1471 1471 1471 1471 1471 1471 1472 1473 1473 1473 1473 1473 1474 1474 1476 1476 1477 1477 1477 1477 1478 1479 1479 1479 1479 1479 1479 1479 1479
1469 1469 1469 1468 1468 1468 1469 1469 1469 1469 1468 1468 1468 1467 1467 1467 1467 1467 1467 1467 1469 1469 1469 1470 1470 1470 1470 1471 1472 1473 1473 1473 1473 1474 1474 1474 1475 1475 1475 1475 1475 1475 1476
1466 1466 1466 1466 1467 1467 1466 1466 1467 1467 1466 1465 1465 1464 1463 1463 1463 1462 1462 1463 1465 1465 1465 1466 1467 1466 1467 1468 1468 1469 1469 1469 1470 1470 1470 1470 1470 1470 1471 1471 1471 1471 1472